Weather History for Willimantic, CT

Change the Weather History Date:

Sunday, February 3, 2013

  Actual Average Record
Temperature  
Mean Temperature 24 °F -  
Max Temperature 30 °F 38 °F 57 °F (1983)
Min Temperature 17 °F 16 °F -16 °F (1961)
Degree Days  
Heating Degree Days 41    
Moisture  
Dew Point 14 °F    
Average Humidity 67    
Maximum Humidity 85    
Minimum Humidity 47    
Precipitation  
Precipitation 0.00 in - - ()
Sea Level Pressure  
Sea Level Pressure 29.88 in    
Wind  
Wind Speed 2 mph (North)    
Max Wind Speed 9 mph    
Max Gust Speed -    
Visibility 9 miles    
Events Snow    
Averages and records for this station are not official NWS values.
T = Trace of Precipitation, MM = Missing Value Source: NWS Daily Summary

Daily Weather History Graph

Daily Weather History Graph

Search for Another Location

Airport:

Trip Planner

Search our weather history database for the weather conditions in past years. The results will help you decide how hot, cold, wet, or windy it might be!

Date:

Astronomy

Feb. 03, 2013 Rise Set
Actual Time 6:58 AM EST 5:07 PM EST
Civil Twilight 6:29 AM EST 5:36 PM EST
Nautical Twilight 5:56 AM EST 6:09 PM EST
Astronomical Twilight 5:23 AM EST 6:42 PM EST
Moon 12:23 AM EST (2/3) 10:41 AM EST (2/3)
Length of Visible Light 11h 07m
Length of Day
10h 08m
Waning Gibbous, 49% of the Moon is Illuminated
Feb 3
Waning Gibbous
Feb 10
New
Feb 17
First Quarter
Feb 25
Full
Mar 4
Last Quarter

Hourly Weather History & Observations

Time (EST) Temp. Windchill Dew Point Humidity Pressure Visibility Wind Dir Wind Speed Gust Speed Precip Events Conditions
12:52 AM 23.0 °F 17.0 °F 17.1 °F 78% 30.05 in 3.0 mi Variable 4.6 mph - 0.00 in Snow Light Snow
1:52 AM 23.0 °F - 16.0 °F 74% 30.03 in 10.0 mi Calm Calm - 0.00 in   Scattered Clouds
2:52 AM 21.9 °F - 15.1 °F 75% 30.01 in 10.0 mi Calm Calm - N/A   Overcast
3:52 AM 21.0 °F - 16.0 °F 81% 29.99 in 10.0 mi Calm Calm - N/A   Scattered Clouds
4:52 AM 21.0 °F - 16.0 °F 81% 29.98 in 10.0 mi Calm Calm - N/A   Scattered Clouds
5:52 AM 19.9 °F 14.9 °F 16.0 °F 85% 29.96 in 9.0 mi North 3.5 mph - N/A   Overcast
7:52 AM 19.0 °F - 15.1 °F 85% 29.99 in 6.0 mi Calm Calm - N/A   Mostly Cloudy
8:52 AM 21.0 °F - 17.1 °F 85% 29.97 in 7.0 mi Calm Calm - N/A   Clear
9:52 AM 25.0 °F 20.7 °F 16.0 °F 69% 29.95 in 10.0 mi ENE 3.5 mph - N/A   Clear
10:52 AM 27.0 °F - 14.0 °F 58% 29.92 in 10.0 mi Calm Calm - N/A   Clear
11:24 AM 28.4 °F 23.3 °F 14.0 °F 55% 29.88 in 10.0 mi North 4.6 mph - N/A   Mostly Cloudy
11:52 AM 28.0 °F - 15.1 °F 58% 29.87 in 10.0 mi Calm Calm - N/A   Mostly Cloudy
12:52 PM 30.0 °F 26.5 °F 14.0 °F 51% 29.83 in 10.0 mi Variable 3.5 mph - N/A   Partly Cloudy
1:52 PM 30.0 °F 26.5 °F 12.9 °F 49% 29.81 in 10.0 mi NNE 3.5 mph - N/A   Partly Cloudy
2:52 PM 30.9 °F 24.3 °F 12.9 °F 47% 29.79 in 10.0 mi NE 6.9 mph - N/A   Mostly Cloudy
3:52 PM 30.0 °F 23.2 °F 12.9 °F 49% 29.78 in 10.0 mi NNE 6.9 mph - N/A   Overcast
4:52 PM 28.9 °F 20.4 °F 12.9 °F 51% 29.77 in 10.0 mi NW 9.2 mph - N/A   Scattered Clouds
5:52 PM 27.0 °F 21.6 °F 12.9 °F 56% 29.77 in 10.0 mi NNW 4.6 mph - N/A   Clear
6:52 PM 26.1 °F - 12.9 °F 58% 29.78 in 10.0 mi Calm Calm - N/A   Clear
7:52 PM 24.1 °F - 15.1 °F 69% 29.77 in 10.0 mi Calm Calm - N/A   Scattered Clouds
8:52 PM 23.0 °F - 15.1 °F 72% 29.78 in 10.0 mi Calm Calm - N/A   Overcast
9:52 PM 21.0 °F - 14.0 °F 74% 29.77 in 10.0 mi Calm Calm - N/A   Partly Cloudy
10:52 PM 18.0 °F - 12.0 °F 78% 29.78 in 10.0 mi Calm Calm - N/A   Clear
11:52 PM 17.1 °F - 12.0 °F 81% 29.78 in 8.0 mi Calm Calm - N/A   Clear